Location: Unspecified
(22.6800°N, 112.2000°E)
Time: 12:19:31
(UTC+08:00)

Transit 2A - Pass Details

Date: 04 August 2021
Orbit: 594 x 964 km, 66.7° (Epoch: 21 September)

Event Time Altitude Azimuth Distance (km) Brightness Sun altitude
Rises 15:19:47 0° 343° (NNW) 3,393 9.5 51.5°
Reaches altitude 10° 15:22:13 10° 347° (NNW) 2,507 8.9 51.0°
Maximum altitude 15:28:00 58° 67° (ENE) 1,056 7.1 49.6°
Drops below altitude 10° 15:34:10 10° 145° (SE) 2,669 8.7 48.2°
Sets 15:36:48 0° 149° (SSE) 3,628 9.3 47.6°
